Notices

What's New in latest Release from April 7th, 2021:

- Updated Glossary, including Speed of Maximum Gust, and Total Hourly Precipitation

- Updated national and regional climate services offices contacts and prices information

- Addition of station inventory lists for 1981-2010, 1971-2000, and 1961-1990 Normals.

If you haven't already, please take our survey and provide feedback about our website: https://eccc.sondage-survey.ca/f/LanguageSelection.aspx?s=442ca660-fcf1-47c0-95a9-59707d6fd709

Hourly Data Report for November 22, 2020

MUSKOKA
ONTARIO
Current Station Operator: NAVCAN

44°58'29.000" N
79°18'12.000" W
281.90 m
6115529
71532
YQA

Download Data

Hourly Data (November 2020)
Hourly Data Report for November 22, 2020
TIME
LST
Temp Definition
°C
Dew Point Definition
°C
Rel Hum Definition
%
Precip. Amount Definition
mm

Wind Dir Definition
10's deg

Wind Spd Definition
km/h
Visibility Definition
km
Stn Press Definition
kPa
Hmdx Definition


Wind Chill Definition


Weather Definition


00:00 -1.1 -6.2 68 0.0 LegendMM 4 16.1 99.80   -2 LegendNANA
01:00 -1.1 -6.4 67 0.0 LegendMM 4 16.1 99.79   -2 LegendNANA
02:00 -1.3 -6.1 70 0.0   0 16.1 99.83     LegendNANA
03:00 -1.1 -6.3 68 0.0 11 5 16.1 99.76   -3 LegendNANA
04:00 -1.1 -6.3 68 0.0 7 5 16.1 99.68   -3 LegendNANA
05:00 -1.2 -6.1 69 0.0 LegendMM 4 16.1 99.68   -3 LegendNANA
06:00 -1.1 -6.1 69 0.0 11 8 16.1 99.68   -4 LegendNANA
07:00 -1.1 -5.9 70 0.0 12 5 16.1 99.65   -3 LegendNANA
08:00 -1.1 -6.1 69 0.0 12 5 16.1 99.63   -3 LegendNANA
09:00 -0.8 -6.2 67 0.0 13 9 16.1 99.56   -4 LegendNANA
10:00 -0.3 -6.3 64 0.0 12 11 16.1 99.51   -4 LegendNANA
11:00 0.0 -6.2 63 0.0 12 8 16.1 99.43   -3 LegendNANA
12:00 0.3 -6.2 62 0.0 9 5 16.1 99.26     LegendNANA
13:00 0.6 -5.7 63 0.0 10 8 16.1 99.13     LegendNANA
14:00 -0.9 -2.8 87 0.0 7 9 1.6 99.00   -4 Snow
15:00 -1.0 -2.1 92 192.3 7 8 1.6 98.83   -4 Snow
16:00 -1.0 -2.0 93 LegendMM LegendMM 11 1.6 98.70   -5 Snow
17:00 -1.2 -2.2 93 LegendMM 6 9 1.6 98.61   -4 Snow
18:00 -1.3 -2.1 94 LegendMM 6 5 1.6 98.57   -3 Snow
19:00 -1.5 -2.3 94 LegendMM 5 5 2.0 98.47   -3 Snow
20:00 -1.5 -2.6 92 LegendMM LegendMM 5 4.8 98.39   -3 Snow
21:00 -1.7 -2.8 92 LegendMM 4 8 9.7 98.24   -5 Snow
22:00 -1.6 -2.9 91 LegendMM 1 5 14.5 98.19   -3 Snow
23:00 -1.8 -2.8 93 LegendMM 35 8 3.6 98.11   -5 Snow

Notes on Data Quality.

Legend

  • E = Estimated
  • M = Missing
  • NA = Not Available*
  • [empty] = Indicates an unobserved value
Date modified: